This is the latest recevied weather packets stored in our database for station/object N3WPH. If no packets are shown the sender has not sent any weather packets the latest 10 day(s).
| Time | Temp. | Humidity | Pressure | Rain* | Wind** | Luminosity | Snow |
|---|---|---|---|---|---|---|---|
| 1777739644 | 12.78° C | 50% | 1012.9 hPa | 0 mm | - | 849 W/m² | - |
| 1777739342 | 12.22° C | 53% | 1013 hPa | 0 mm | - | 846 W/m² | - |
| 1777739038 | 12.22° C | 54% | 1013.1 hPa | 0 mm | - | 214 W/m² | - |
| 1777738735 | 12.22° C | 56% | 1013.2 hPa | 0 mm | - | 866 W/m² | - |
| 1777738431 | 12.22° C | 50% | 1013.2 hPa | 0 mm | - | 830 W/m² | - |
| 1777738129 | 12.22° C | 56% | 1013.3 hPa | 0 mm | - | 820 W/m² | - |
| 1777737828 | 12.22° C | 59% | 1013.5 hPa | 0 mm | - | 874 W/m² | - |
| 1777737526 | 12.22° C | 58% | 1013.4 hPa | 0 mm | - | 882 W/m² | - |
| 1777737223 | 11.11° C | 56% | 1013.4 hPa | 0 mm | - | 859 W/m² | - |
| 1777736919 | 12.22° C | 56% | 1013.3 hPa | 0 mm | - | 171 W/m² | - |
| 1777736311 | 10.56° C | 63% | 1013.4 hPa | 0 mm | - | 786 W/m² | - |
| 1777736007 | 11.11° C | 60% | 1013.3 hPa | 0 mm | - | 151 W/m² | - |
| 1777735705 | 10.56° C | 59% | 1013.4 hPa | 0 mm | - | 811 W/m² | - |
| 1777735402 | 11.67° C | 60% | 1013.4 hPa | 0 mm | - | 837 W/m² | - |
| 1777735100 | 11.11° C | 62% | 1013.3 hPa | 0 mm | - | 755 W/m² | - |
| 1777734796 | 11.11° C | 61% | 1013.4 hPa | 0 mm | - | 742 W/m² | - |
| 1777734494 | 11.11° C | 63% | 1013.2 hPa | 0 mm | - | 331 W/m² | - |
| 1777734190 | 10° C | 60% | 1013.2 hPa | 0 mm | - | 771 W/m² | - |
| 1777733887 | 11.11° C | 59% | 1013.4 hPa | 0 mm | - | 240 W/m² | - |
| 1777733584 | 11.11° C | 58% | 1013.3 hPa | 0 mm | - | 707 W/m² | - |
| 1777733280 | 11.11° C | 62% | 1013.1 hPa | 0 mm | - | 721 W/m² | - |
| 1777732977 | 10.56° C | 61% | 1013.5 hPa | 0 mm | - | 364 W/m² | - |
| 1777732673 | 10° C | 61% | 1013.4 hPa | 0 mm | - | 688 W/m² | - |
| 1777732370 | 10.56° C | 64% | 1013.4 hPa | 0 mm | - | 678 W/m² | - |
| 1777732068 | 10.56° C | 65% | 1013.4 hPa | 0 mm | - | 588 W/m² | - |
* Rain latest hour (hover to see other rain measurements)
** Current wind speed in m/s (hover to see current wind gust speed)